Regional Weather Roundup
Issued by NWS

Home | Current Version | Previous Version | Graphics & Text | Print | Product List | Glossary On
Versions: 1 2 3 4 5 6 7 8 9 10 11 12 13 14 15 16 17 18 19 20 21 22 23 24 25 26 27 28 29 30 31 32 33 34 35 36 37 38 39 40 41 42 43 44 45 46 47 48 49 50
000
ASUS43 KIND 230309
RWRIN

WEATHER ROUNDUP FOR INDIANA
NATIONAL WEATHER SERVICE INDIANAPOLIS IN
1100 PM EDT MON AUG 22 2016

NOTE: "FAIR" INDICATES FEW OR NO CLOUDS BELOW 12,000 FEET WITH NO
SIGNIFICANT WEATHER AND/OR OBSTRUCTIONS TO VISIBILITY.

* - STATION DOES NOT REPORT WEATHER SUCH AS PRECIPITATION OR FOG.

+ - STATION NOT QUALITY CONTROLLED BY THE NATIONAL WEATHER SERVICE.
    USE DATA WITH CAUTION...ESPECIALLY DEWPOINT AND RELATIVE
    HUMIDITY OBSERVATIONS.

INZ001>003-010>013-019-020-230400-
NORTHWEST INDIANA

CITY           SKY/WX    TMP DP  RH WIND       PRES   REMARKS
KNOX *+        CLEAR     61  45  55 SE3       30.20R
LA PORTE +     CLEAR     62  62 100 CALM      30.20S
MICHIGAN CITY+ CLEAR     61  61 100 MISG      30.20R
MONTICELLO +   CLEAR     63  59  86 CALM      30.20R
RENSSELAER +   CLEAR     59  59 100 CALM      30.20R
VALPARAISO     CLEAR     66  57  72 S3        30.20R

$$

LMZ046-743>745-230400-
SOUTHERN LAKE MICHIGAN

STATION/POSITION TIME  TEMP    WIND        PRES    WAVE
                       AIR SEA DIR/SP/G            HT
                 (UTC) (F)     (DEG/KT/KT) (MB)    (FT)
BURNS HARBOR     0200   71     190/  6/  8 1022.4R
MICHIGAN CITY    0200   71     150/  8/ 11   N/A
5NW MICH CITY    0300   71 74  190/ 10/ 12   N/A     1

$$

INZ004-005-014>016-021>024-230400-
NORTH CENTRAL INDIANA

CITY           SKY/WX    TMP DP  RH WIND       PRES   REMARKS
GOSHEN         CLEAR     62  56  80 SE3       30.20S
LOGANSPORT +   CLEAR     59  57  94 SE6       30.21S
PERU/GRISSOM   CLEAR     64  58  79 SE5       30.20R
ROCHESTER +    CLEAR     63  61  94 CALM      30.21R
SOUTH BEND     CLEAR     65  57  75 S3        30.20S
WARSAW +       CLEAR     59  59 100 CALM      30.21S

$$

INZ006>009-017-018-025>027-230400-
NORTHEAST INDIANA

CITY           SKY/WX    TMP DP  RH WIND       PRES   REMARKS
ANGOLA *+      CLEAR     61  61 100 CALM      30.21F
AUBURN +       CLEAR     61  55  82 CALM      30.22S
FORT WAYNE     CLEAR     60  56  86 CALM      30.22S
HUNTINGTON +   CLEAR    N/A N/A N/A CALM      30.21S

$$

INZ028-029-035-036-043>045-051>053-230400-
WEST CENTRAL INDIANA

CITY           SKY/WX    TMP DP  RH WIND       PRES   REMARKS
CRAWFORDSVL +  CLEAR     57  57 100 CALM      30.22R
GREENCASTLE +  PTCLDY    63  63 100 CALM      30.23R
LAFAYETTE      CLEAR     62  60  93 CALM      30.20R
TERRE HAUTE    CLEAR     63  60  90 CALM      30.21R

$$

INZ030>032-037>040-046>048-054>057-064-065-230400-
CENTRAL INDIANA

CITY           SKY/WX    TMP DP  RH WIND       PRES   REMARKS
INDIANAPOLIS   PTCLDY    68  58  70 SE7       30.22R
-EAGLE CREEK   CLEAR     69  59  70 CALM      30.22R
KOKOMO *+      CLEAR     61  54  77 SE3       30.22R
MARION +       CLEAR     60  57  91 CALM      30.23R
MT COMFORT *+  CLEAR     63  57  82 S3        30.23R
SHELBYVILLE    CLEAR     63  58  83 SE5       30.22R
ZIONSVILLE +   CLEAR     59  58  97 CALM      30.23S

$$

INZ033-034-041-042-049-050-058-059-230400-
EAST CENTRAL INDIANA

CITY           SKY/WX    TMP DP  RH WIND       PRES   REMARKS
MUNCIE         CLEAR     62  58  86 CALM      30.23R

$$

INZ060-061-067>069-081>083-085>088-230400-
SOUTHWEST INDIANA

CITY           SKY/WX    TMP DP  RH WIND       PRES   REMARKS
EVANSVILLE     CLEAR     67  62  84 CALM      30.21R
HUNTINGBURG *+ CLEAR     64  61  88 CALM      30.22R
WASHINGTON +   CLEAR     63  63 100 MISG      30.21R

$$

INZ062-063-066-070>080-084-089>092-230400-
SOUTH CENTRAL AND SOUTHEAST INDIANA

CITY           SKY/WX    TMP DP  RH WIND       PRES   REMARKS
BLOOMINGTON    CLEAR     61  59  93 CALM      30.22R
MADISON *+     CLEAR     63  61  94 CALM      30.25S

$$





USA.gov is the U.S. government's official web portal to all federal, state and local government web resources and services.